Starlink 34948

operational
NORAD ID: 65191 Int'l Des: 2025-175 Owner: SPXS Country: US Constellation: starlink
LEOCIRCULARRETROGRADESSO

Über Starlink 34948

Beschreibung wird geladen...

Live-Position

3D-Globus wird geladen...

Nächste Überflüge

Höhenverlauf

Altitude vs Time

uPlot chart will show altitude changes over time

Zweizeiliger Elementsatz

1 65191U 25175T 25340.92069829 .00012030 00000-0 83628-3 0 9997
2 65191 97.6020 211.2503 0002262 81.8769 278.2715 15.05661276 18687
Epoch: 6. Dez. 2025 • Age: 20 hours

Aktueller Status

Höhe 577.0 km
Geschwindigkeit 7.57 km/s
Subsatellitenpunkt -69.44°S, 19.38°E
Startdatum 14. Aug. 2025
Alter 0.3 years
Typ internet

Technische Details

Klassifizierung Payload
Masse 575.00 kg
Trockenmasse 530.00 kg
Gesamtmasse 575.00 kg
Länge 0.30 m
Durchmesser 4.10 m
Spannweite 29.00 m
Form Box + pan
Hersteller SPXS
Bus-Typ Starlink V2MO
Phasenstatus In Orbit
Besitzer/Staat SPXS/US

Große Konstellationen

Loading constellations...